{"data":{"norad_id":62784,"intl_designator":"2025-015AC","name":"STARLINK-33581","alt_names":[],"object_type":"PAYLOAD","status":"ACTIVE","operator":null,"country":"US","launch_date":"2025-01-21","launch_site_code":"AFWTR","launch_vehicle":null,"mission":null,"orbit_class":"UNKNOWN","rcs_meters":null,"size_class":null,"mass_kg":null,"dimensions":null,"purposes":["comms"],"wikipedia_slug":null,"has_3d_model":false,"image_url":null,"decayed_at":null,"tle_current":{"epoch":"2026-05-24T15:49:34.986144Z","epoch_age_seconds":101570,"freshness":"FRESH","line1":"1 62784U 25015AC  26144.65943271  .00016142  00000+0  53063-3 0  9997","line2":"2 62784  53.1606 329.4914 0000827  95.0137 265.0959 15.31711043 76111","mean_motion":15.31711043,"eccentricity":8.27e-5,"inclination_deg":53.1606,"raan_deg":329.4914,"arg_perigee_deg":95.0137,"mean_anomaly_deg":265.0959,"bstar":0.00053063,"rev_number":7611,"period_min":94.012510165078,"perigee_km":470.1406774099,"apogee_km":471.27347622021,"semimajor_km":6848.8440768151,"source":"CELESTRAK","updated_at":"2026-05-25T13:38:19.749094Z"}}}